Regional Weather Roundup
Issued by NWS Jackson, KY

Home | Current Version | Previous Version | Text Only | Print | Product List | Glossary Off
Versions: 1 2 3 4 5 6 7 8 9 10 11 12 13 14 15 16 17 18 19 20 21 22 23 24 25 26 27

000
ASUS43 KJKL 302010
RWRJKL

EAST KENTUCKY HOURLY WEATHER ROUNDUP
NATIONAL WEATHER SERVICE JACKSON KY
400 PM EDT SAT JUL 30 2016

NOTE: "FAIR" INDICATES FEW OR NO CLOUDS BELOW 12,000 FEET WITH
NO SIGNIFICANT WEATHER AND/OR OBSTRUCTIONS TO VISIBILITY.

* THESE REPORTS ARE NOT UNDER NWS QUALITY CONTROL AND MAY NOT
  REPORT WEATHER SUCH AS PRECIPITATION AND FOG.

KYZ079-080-083-085-087-088-110-112-115-119-120-302100
...EASTERN KENTUCKY...

CITY           SKY/WX    TMP DP  RH WIND       PRES   REMARKS
JACKSON        MOSUNNY   86  71  60 VRB5      29.99F HX  91
LONDON         MOSUNNY   85  67  54 SW8       30.00F
SOMERSET*      MOSUNNY   82  68  61 SW8       30.01F
MONTICELLO*    MOSUNNY  N/A N/A N/A W14       30.02F
WILLIAMSBURG*  CLEAR     84  72  65 W6        30.01F
MIDDLESBORO*   PTSUNNY   86  73  64 CALM      30.00F HX  93
HARLAN APT*      N/A     84  66  54 SW7       30.01F
PIKE CO APT*     N/A     82  69  65 SW5       30.00F
BIG SANDY APT* MOCLDY    84  71  65 CALM      29.98F HX  90
MOREHEAD APT*  PTCLDY    84  68  58 VRB6      29.99F
ASHLAND*       MOSUNNY   86  72  62 W5        29.93S HX  92
$$

KYZ035-036-041-042-044-050-067-078-099-302100
...CENTRAL KENTUCKY...

CITY           SKY/WX    TMP DP  RH WIND       PRES   REMARKS
MT STERLING*   SUNNY     86  72  62 W3        29.99F HX  92
FLEMING/MASON* MOSUNNY   83  67  58 NW8       29.97F
DANVILLE*      MOSUNNY   86  68  54 W6        29.99F
LEXINGTON      SUNNY     86  68  54 NW6       29.97F
FRANKFORT      CLOUDY    85  69  58 SW7       29.95F
LOUISVILLE     PTSUNNY   79  71  76 NE6       29.96S
LEBANON*         N/A     84  72  65 S9        29.98F
GLASGOW*       MOSUNNY   85  71  61 SW5       29.99S HX  90
BOWLING GREEN  MOSUNNY   86  71  60 VRB7      29.98S HX  91
$$

KYZ091>093-OHZ055-061-077-WVZ005-015-034-035-042-302100
...SOUTHERN OHIO/WEST VIRGINIA...

CITY           SKY/WX    TMP DP  RH WIND       PRES   REMARKS
COVINGTON      CLOUDY    86  68  54 SW6       29.95F
COLUMBUS       MOSUNNY   85  66  53 W9        29.91F
DAYTON         MOSUNNY   84  66  54 SW10      29.95F
WILMINGTON     PTSUNNY   84  67  56 SW10      29.95F
HUNTINGTON     PTSUNNY   87  71  58 VRB6      29.95F HX  93
CHARLESTON     LGT RAIN  80  70  71 SW8       29.97S
PINEVILLE*     PTSUNNY   83  66  55 MISG      30.06F
BECKLEY          N/A     80  65  59 W12       30.06F
BLUEFIELD        N/A     76  65  68 SW9       30.09F
LOGAN CO APT*    N/A     82  70  65 W7        30.00F
$$

VAZ002-007-008-TNZ017-027-036-066-071-302100
...SOUTHWEST VIRGINIA/EAST TENNESSEE...

CITY           SKY/WX    TMP DP  RH WIND       PRES   REMARKS
WISE*            N/A     82  59  44 W3        30.09F
JONESVILLE*      N/A     86  70  58 SW6       30.03F HX  90
ABINGDON*      PTSUNNY   82  69  64 NW9       30.06F
BRISTOL        PTSUNNY   85  67  54 VRB3      30.03F
MORRISTOWN*    CLEAR     86  70  58 NW6G12    30.00F HX  90
SEVIERVILLE*     N/A     93  66  40 VRB7      29.98F HX  96
KNOXVILLE      MOSUNNY   89  70  53 SW10      29.97F HX  94
OAK RIDGE      MOSUNNY   91  68  46 VRB3      30.00F HX  95
CROSSVILLE     MOSUNNY   82  67  60 SW5       30.06F
NASHVILLE      PTSUNNY   86  69  56 S6        29.99F HX  90
$$

...KEY TO REMARKS...
VSB - VISIBILITY IN MILES
WCI - WIND CHILL INDEX
HX  - HEAT INDEX

$$




USA.gov is the U.S. government's official web portal to all federal, state and local government web resources and services.